TimeMDT,TemperatureF,Dew PointF,Humidity,Sea Level PressureIn,VisibilityMPH,Wind Direction,Wind SpeedMPH,Gust SpeedMPH,PrecipitationIn,Events,Conditions,WindDirDegrees,DateUTC
12:15 AM,69.8,62.6,78,30.08,10.0,NNW,15.0,-,N/A,Rain,Light Rain,340,2013-07-08 06:15:00
12:35 AM,71.6,60.8,69,30.10,10.0,NNW,8.1,-,N/A,,Mostly Cloudy,340,2013-07-08 06:35:00
12:55 AM,71.6,60.8,69,30.08,10.0,North,12.7,-,N/A,Thunderstorm,Thunderstorm,350,2013-07-08 06:55:00
1:15 AM,71.6,60.8,69,30.10,10.0,NNE,6.9,-,N/A,Rain,Light Rain,20,2013-07-08 07:15:00
1:35 AM,73.4,59.0,61,30.10,10.0,North,-9999.0,-,N/A,,Light Drizzle,0,2013-07-08 07:35:00
1:55 AM,73.4,59.0,61,30.12,10.0,SSW,5.8,-,N/A,,Mostly Cloudy,210,2013-07-08 07:55:00
2:15 AM,71.6,60.8,69,30.13,10.0,SSW,5.8,-,N/A,,Overcast,200,2013-07-08 08:15:00
2:35 AM,71.6,62.6,73,30.12,10.0,SW,8.1,-,N/A,Thunderstorm,Mostly Cloudy,230,2013-07-08 08:35:00
2:55 AM,71.6,60.8,69,30.12,10.0,SW,9.2,-,N/A,,Overcast,220,2013-07-08 08:55:00
3:15 AM,69.8,62.6,78,30.12,10.0,SW,10.4,-,0.01,Rain,Light Rain,220,2013-07-08 09:15:00
3:35 AM,69.8,62.6,78,30.12,10.0,SW,10.4,-,0.01,Rain,Light Rain,220,2013-07-08 09:35:00
3:55 AM,69.8,62.6,78,30.12,10.0,SW,8.1,-,0.01,Rain,Light Rain,220,2013-07-08 09:55:00
4:15 AM,68.0,62.6,83,30.12,10.0,WSW,6.9,-,0.01,Rain,Light Rain,240,2013-07-08 10:15:00
4:55 AM,69.8,62.6,78,30.12,10.0,NNW,6.9,-,0.01,,Mostly Cloudy,330,2013-07-08 10:55:00
5:15 AM,68.0,64.4,88,30.12,10.0,NNW,4.6,-,N/A,,Overcast,340,2013-07-08 11:15:00
5:35 AM,69.8,64.4,83,30.11,10.0,North,10.4,-,N/A,,Overcast,350,2013-07-08 11:35:00
5:55 AM,69.8,64.4,83,30.11,10.0,NNW,8.1,-,N/A,,Overcast,340,2013-07-08 11:55:00
6:15 AM,69.8,62.6,78,30.11,10.0,NW,8.1,-,N/A,,Mostly Cloudy,320,2013-07-08 12:15:00
6:35 AM,69.8,62.6,78,30.11,10.0,NNW,9.2,-,N/A,,Scattered Clouds,330,2013-07-08 12:35:00
6:55 AM,69.8,62.6,78,30.10,10.0,WNW,11.5,-,N/A,,Clear,300,2013-07-08 12:55:00
7:15 AM,71.6,60.8,69,30.10,10.0,WNW,10.4,-,N/A,,Mostly Cloudy,300,2013-07-08 13:15:00
7:35 AM,69.8,62.6,78,30.10,10.0,WNW,10.4,-,N/A,,Scattered Clouds,300,2013-07-08 13:35:00
7:55 AM,73.4,60.8,65,30.10,10.0,North,-9999.0,-,N/A,,Mostly Cloudy,0,2013-07-08 13:55:00
8:15 AM,77.0,59.0,54,30.10,10.0,WNW,6.9,-,N/A,,Mostly Cloudy,300,2013-07-08 14:15:00
8:35 AM,77.0,60.8,57,30.09,10.0,NNW,6.9,-,N/A,,Scattered Clouds,330,2013-07-08 14:35:00
8:55 AM,78.8,60.8,54,30.10,10.0,North,-9999.0,-,N/A,,Clear,0,2013-07-08 14:55:00
9:15 AM,78.8,60.8,54,30.10,10.0,North,-9999.0,-,N/A,,Clear,0,2013-07-08 15:15:00
9:35 AM,77.0,62.6,61,30.11,10.0,North,-9999.0,-,N/A,,Clear,0,2013-07-08 15:35:00
9:55 AM,77.0,62.6,61,30.11,10.0,West,11.5,-,N/A,,Clear,260,2013-07-08 15:55:00
10:15 AM,77.0,62.6,61,30.12,10.0,WSW,10.4,-,N/A,,Clear,250,2013-07-08 16:15:00
10:35 AM,78.8,60.8,54,30.12,10.0,North,-9999.0,-,N/A,,Clear,0,2013-07-08 16:35:00
10:55 AM,82.4,60.8,48,30.12,10.0,West,10.4,-,N/A,,Clear,280,2013-07-08 16:55:00
11:15 AM,84.2,60.8,45,30.12,10.0,WNW,10.4,-,N/A,,Clear,300,2013-07-08 17:15:00
11:35 AM,86.0,59.0,40,30.12,10.0,NNW,6.9,-,N/A,,Clear,330,2013-07-08 17:35:00
11:55 AM,86.0,59.0,40,30.11,10.0,WNW,5.8,-,N/A,,Clear,290,2013-07-08 17:55:00
12:15 PM,87.8,59.0,38,30.11,10.0,NW,5.8,-,N/A,,Clear,310,2013-07-08 18:15:00
12:35 PM,87.8,59.0,38,30.11,10.0,NNW,4.6,-,N/A,,Clear,340,2013-07-08 18:35:00
12:55 PM,91.4,59.0,34,30.10,10.0,West,6.9,-,N/A,,Clear,280,2013-07-08 18:55:00
1:15 PM,91.4,59.0,34,30.09,10.0,South,3.5,-,N/A,,Clear,190,2013-07-08 19:15:00
1:35 PM,93.2,59.0,32,30.07,10.0,WSW,8.1,-,N/A,,Clear,250,2013-07-08 19:35:00
1:55 PM,95.0,57.2,28,30.07,10.0,SW,12.7,16.1,N/A,,Scattered Clouds,220,2013-07-08 19:55:00
2:15 PM,93.2,55.4,28,30.06,10.0,South,6.9,16.1,N/A,Thunderstorm,Scattered Clouds,180,2013-07-08 20:15:00
2:35 PM,91.4,53.6,28,30.06,10.0,SE,3.5,18.4,N/A,Thunderstorm,Clear,140,2013-07-08 20:35:00
2:55 PM,91.4,55.4,29,30.06,10.0,Calm,Calm,-,N/A,Thunderstorm,Scattered Clouds,0,2013-07-08 20:55:00
3:15 PM,91.4,55.4,29,30.06,7.0,North,-9999.0,-,N/A,Thunderstorm,Mostly Cloudy,0,2013-07-08 21:15:00
3:35 PM,82.4,60.8,48,30.06,7.0,North,11.5,-,0.02,Rain-Thunderstorm,Light Thunderstorms and Rain,350,2013-07-08 21:35:00
3:55 PM,82.4,62.6,51,30.06,10.0,North,13.8,21.9,0.02,Thunderstorm,Thunderstorm,360,2013-07-08 21:55:00
4:15 PM,80.6,60.8,51,30.07,10.0,NNE,12.7,-,N/A,Thunderstorm,Thunderstorm,20,2013-07-08 22:15:00
4:35 PM,78.8,60.8,54,30.08,10.0,North,-9999.0,-,N/A,Thunderstorm,Mostly Cloudy,0,2013-07-08 22:35:00
4:55 PM,80.6,59.0,48,30.06,10.0,NNE,6.9,-,N/A,Thunderstorm,Thunderstorm,20,2013-07-08 22:55:00
5:15 PM,80.6,60.8,51,30.06,10.0,NNW,5.8,-,N/A,Thunderstorm,Clear,340,2013-07-08 23:15:00
5:35 PM,78.8,60.8,54,30.06,10.0,North,6.9,-,N/A,,Clear,360,2013-07-08 23:35:00
5:55 PM,80.6,57.2,45,30.05,10.0,North,11.5,17.3,N/A,,Scattered Clouds,10,2013-07-08 23:55:00
6:15 PM,80.6,57.2,45,30.04,10.0,NNE,15.0,-,N/A,,Light Drizzle,20,2013-07-09 00:15:00
6:35 PM,80.6,55.4,42,30.04,10.0,NNE,10.4,18.4,N/A,,Clear,20,2013-07-09 00:35:00
6:55 PM,82.4,53.6,37,30.05,10.0,North,9.2,-,N/A,,Clear,10,2013-07-09 00:55:00
7:15 PM,82.4,53.6,37,30.05,10.0,North,8.1,-,N/A,,Clear,360,2013-07-09 01:15:00
7:35 PM,80.6,53.6,39,30.06,10.0,North,8.1,-,N/A,,Clear,360,2013-07-09 01:35:00
7:55 PM,80.6,53.6,39,30.06,10.0,NNW,10.4,-,N/A,,Clear,340,2013-07-09 01:55:00
8:15 PM,80.6,53.6,39,30.06,10.0,NNW,10.4,-,N/A,,Clear,340,2013-07-09 02:15:00
8:35 PM,78.8,51.8,39,30.06,10.0,NNW,10.4,-,N/A,,Clear,330,2013-07-09 02:35:00
8:55 PM,78.8,51.8,39,30.07,10.0,NW,8.1,-,N/A,,Clear,320,2013-07-09 02:55:00
9:15 PM,77.0,53.6,44,30.08,10.0,WNW,11.5,-,N/A,,Clear,300,2013-07-09 03:15:00
9:35 PM,77.0,55.4,47,30.08,10.0,NW,12.7,19.6,N/A,,Clear,320,2013-07-09 03:35:00
9:55 PM,75.2,57.2,53,30.10,10.0,NW,13.8,-,N/A,,Clear,310,2013-07-09 03:55:00
10:15 PM,73.4,57.2,57,30.10,10.0,NW,13.8,-,N/A,,Clear,310,2013-07-09 04:15:00
10:35 PM,75.2,57.2,53,30.11,10.0,NW,18.4,-,N/A,,Clear,320,2013-07-09 04:35:00
10:55 PM,73.4,57.2,57,30.12,10.0,NW,13.8,-,N/A,,Clear,310,2013-07-09 04:55:00
11:15 PM,73.4,57.2,57,30.12,10.0,NW,13.8,-,N/A,,Clear,310,2013-07-09 05:15:00
11:35 PM,73.4,59.0,61,30.12,10.0,North,-9999.0,-,N/A,,Mostly Cloudy,0,2013-07-09 05:35:00
11:55 PM,73.4,59.0,61,30.13,10.0,West,11.5,-,N/A,,Mostly Cloudy,280,2013-07-09 05:55:00